• In Uzbekistan
  • List of Countries
  • For 7 days
  • Water Temperature
  • Satellite Maps
  • Weather Map
  • Weather Widgets
  • user-avatar
    Login

    Hourly Weather Birevo

    Today, 18 October, Thursday

    Time Temperature Precipitation Wind Pressure Humidity
    00:00 +11°C° 0 mm 1 mps 749 mmHg 88%
    01:00 +11°C° 0 mm 1 mps 749 mmHg 88%
    02:00 +10°C° 0 mm 1 mps 749 mmHg 89%
    03:00 +10°C° 0 mm 1 mps 749 mmHg 90%
    04:00 +10°C° 0 mm 1 mps 749 mmHg 90%
    05:00 +10°C° 0 mm 1 mps 749 mmHg 91%
    06:00 +10°C° 0 mm 1 mps 748 mmHg 91%
    07:00 +9°C° 0 mm 2 mps 748 mmHg 89%
    08:00 +10°C° 0 mm 2 mps 748 mmHg 87%
    09:00 +10°C° 0 mm 2 mps 748 mmHg 85%
    10:00 +13°C° 0 mm 2 mps 748 mmHg 80%
    11:00 +14°C° 0 mm 2 mps 748 mmHg 74%
    12:00 +16°C° 0 mm 3 mps 748 mmHg 68%
    13:00 +17°C° 0 mm 3 mps 747 mmHg 67%
    14:00 +17°C° 0 mm 3 mps 747 mmHg 65%
    15:00 +18°C° 0 mm 3 mps 747 mmHg 64%
    16:00 +16°C° 0 mm 3 mps 746 mmHg 71%
    17:00 +14°C° 0 mm 3 mps 746 mmHg 77%
    18:00 +14°C° 0 mm 2 mps 746 mmHg 84%
    19:00 +13°C° 0 mm 2 mps 746 mmHg 86%
    20:00 +13°C° 0 mm 2 mps 746 mmHg 87%
    21:00 +13°C° 0 mm 2 mps 746 mmHg 89%
    22:00 +12°C° 0 mm 2 mps 746 mmHg 89%
    23:00 +12°C° 0 mm 2 mps 745 mmHg 89%

    Tomorrow, 19 October, Friday

    Time Temperature Precipitation Wind Pressure Humidity
    00:00 +12°C° 0 mm 2 mps 745 mmHg 90%
    01:00 +11°C° 0 mm 3 mps 745 mmHg 90%
    02:00 +11°C° 0 mm 3 mps 745 mmHg 90%
    03:00 +10°C° 0 mm 3 mps 745 mmHg 90%
    04:00 +10°C° 0 mm 3 mps 744 mmHg 91%
    05:00 +10°C° 0 mm 3 mps 744 mmHg 91%
    06:00 +10°C° 0 mm 3 mps 744 mmHg 92%
    07:00 +11°C° 0 mm 3 mps 744 mmHg 89%
    08:00 +11°C° 0 mm 3 mps 744 mmHg 86%
    09:00 +12°C° 0 mm 3 mps 743 mmHg 84%
    10:00 +13°C° 0 mm 3 mps 743 mmHg 79%
    11:00 +14°C° 0 mm 3 mps 743 mmHg 74%
    12:00 +17°C° 0 mm 3 mps 743 mmHg 70%
    13:00 +17°C° 0 mm 4 mps 742 mmHg 68%
    14:00 +18°C° 0 mm 4 mps 742 mmHg 67%
    15:00 +18°C° 0 mm 4 mps 742 mmHg 66%
    16:00 +17°C° 0 mm 3 mps 742 mmHg 72%
    17:00 +14°C° 0 mm 3 mps 742 mmHg 78%
    18:00 +14°C° 0 mm 2 mps 742 mmHg 84%
    19:00 +14°C° 0 mm 2 mps 742 mmHg 86%
    20:00 +13°C° 0 mm 2 mps 742 mmHg 88%
    21:00 +12°C° 0 mm 3 mps 742 mmHg 90%
    22:00 +11°C° 0 mm 3 mps 742 mmHg 91%
    23:00 +10°C° 0 mm 2 mps 743 mmHg 92%

    Day after tomorrow, 20 October, Saturday

    Time Temperature Precipitation Wind Pressure Humidity
    00:00 +9°C° 0 mm 2 mps 743 mmHg 93%
    01:00 +9°C° 0 mm 3 mps 743 mmHg 92%
    02:00 +8°C° 0 mm 3 mps 743 mmHg 92%
    03:00 +7°C° 0 mm 3 mps 743 mmHg 91%
    04:00 +7°C° 0 mm 3 mps 744 mmHg 91%
    05:00 +6°C° 0 mm 2 mps 744 mmHg 91%
    06:00 +5°C° 0 mm 2 mps 744 mmHg 91%
    07:00 +6°C° 0 mm 2 mps 744 mmHg 88%
    08:00 +6°C° 0 mm 2 mps 744 mmHg 84%
    09:00 +6°C° 0 mm 2 mps 745 mmHg 81%
    10:00 +7°C° 0 mm 2 mps 745 mmHg 74%
    11:00 +9°C° 0 mm 2 mps 745 mmHg 68%
    12:00 +10°C° 0 mm 2 mps 745 mmHg 61%
    13:00 +10°C° 0 mm 2 mps 745 mmHg 59%
    14:00 +10°C° 0 mm 2 mps 745 mmHg 58%
    15:00 +10°C° 0 mm 2 mps 745 mmHg 56%
    16:00 +9°C° 0 mm 2 mps 745 mmHg 61%
    17:00 +8°C° 0 mm 2 mps 744 mmHg 67%
    18:00 +8°C° 0 mm 1 mps 744 mmHg 72%
    19:00 +7°C° 0 mm 1 mps 744 mmHg 75%
    20:00 +7°C° 0 mm 1 mps 744 mmHg 77%
    21:00 +6°C° 0 mm 1 mps 744 mmHg 80%
    22:00 +6°C° 0 mm 1 mps 744 mmHg 82%
    23:00 +5°C° 0 mm 1 mps 744 mmHg 84%

    21 October, Sunday

    Time Temperature Precipitation Wind Pressure Humidity
    00:00 +5°C° 0 mm 1 mps 744 mmHg 86%
    01:00 +4°C° 0 mm 0 mps 744 mmHg 87%
    02:00 +4°C° 0 mm 0 mps 744 mmHg 88%
    03:00 +3°C° 0 mm 0 mps 744 mmHg 89%
    04:00 +3°C° 0 mm 0 mps 743 mmHg 89%
    05:00 +3°C° 0 mm 0 mps 743 mmHg 89%
    06:00 +3°C° 0 mm 0 mps 743 mmHg 89%
    07:00 +4°C° 0 mm 0 mps 743 mmHg 87%
    08:00 +4°C° 0 mm 0 mps 744 mmHg 84%
    09:00 +6°C° 0 mm 1 mps 744 mmHg 82%
    10:00 +7°C° 0 mm 1 mps 744 mmHg 78%
    11:00 +8°C° 0 mm 1 mps 744 mmHg 73%
    12:00 +8°C° 0 mm 2 mps 744 mmHg 69%
    13:00 +8°C° 0 mm 2 mps 744 mmHg 68%
    14:00 +8°C° 0 mm 2 mps 744 mmHg 67%
    15:00 +9°C° 0 mm 2 mps 745 mmHg 66%
    16:00 +8°C° 0 mm 2 mps 745 mmHg 69%
    17:00 +7°C° 0 mm 2 mps 745 mmHg 73%
    18:00 +7°C° 0 mm 2 mps 745 mmHg 76%
    19:00 +6°C° 0 mm 2 mps 746 mmHg 77%
    20:00 +6°C° 0 mm 2 mps 746 mmHg 77%
    21:00 +6°C° 0 mm 2 mps 746 mmHg 78%
    22:00 +5°C° 0 mm 2 mps 747 mmHg 80%
    23:00 +5°C° 0 mm 1 mps 747 mmHg 82%

    22 October, Monday

    Time Temperature Precipitation Wind Pressure Humidity
    00:00 +5°C° 0 mm 1 mps 747 mmHg 85%
    01:00 +4°C° 0 mm 1 mps 747 mmHg 86%
    02:00 +4°C° 0 mm 1 mps 747 mmHg 87%
    03:00 +4°C° 0 mm 1 mps 747 mmHg 88%
    04:00 +4°C° 0 mm 1 mps 747 mmHg 88%
    05:00 +2°C° 0 mm 0 mps 747 mmHg 89%
    06:00 +2°C° 0 mm 0 mps 747 mmHg 89%
    07:00 +4°C° 0 mm 1 mps 747 mmHg 87%
    08:00 +4°C° 0 mm 1 mps 747 mmHg 84%
    09:00 +5°C° 0 mm 1 mps 747 mmHg 82%
    10:00 +5°C° 0 mm 2 mps 746 mmHg 76%
    11:00 +5°C° 0 mm 3 mps 746 mmHg 70%
    12:00 +8°C° 0 mm 3 mps 746 mmHg 65%
    13:00 +7°C° 0 mm 4 mps 745 mmHg 64%
    14:00 +7°C° 0 mm 4 mps 744 mmHg 63%
    15:00 +8°C° 0 mm 5 mps 744 mmHg 62%
    16:00 +7°C° 0 mm 4 mps 743 mmHg 66%
    17:00 +6°C° 0 mm 4 mps 743 mmHg 70%
    18:00 +5°C° 0 mm 4 mps 742 mmHg 74%
    19:00 +5°C° 0 mm 4 mps 742 mmHg 74%
    20:00 +5°C° 0 mm 5 mps 742 mmHg 74%
    21:00 +5°C° 0 mm 5 mps 742 mmHg 75%
    22:00 +5°C° 0 mm 5 mps 741 mmHg 75%
    23:00 +5°C° 0 mm 5 mps 741 mmHg 76%

    23 October, Tuesday

    Time Temperature Precipitation Wind Pressure Humidity
    00:00 +5°C° 0 mm 4 mps 741 mmHg 77%
    01:00 +5°C° 0.1 mm 4 mps 741 mmHg 79%
    02:00 +5°C° 0.1 mm 4 mps 740 mmHg 82%
    03:00 +4°C° 0.1 mm 4 mps 740 mmHg 84%
    04:00 +4°C° 0.3 mm 3 mps 740 mmHg 86%
    05:00 +4°C° 0.3 mm 3 mps 739 mmHg 88%
    06:00 +4°C° 0.3 mm 3 mps 739 mmHg 90%
    07:00 +4°C° 0.4 mm 3 mps 739 mmHg 89%
    08:00 +4°C° 0.4 mm 3 mps 738 mmHg 89%
    09:00 +4°C° 0.4 mm 3 mps 738 mmHg 89%
    10:00 +5°C° 0.3 mm 3 mps 738 mmHg 87%
    11:00 +5°C° 0.3 mm 3 mps 738 mmHg 86%
    12:00 +5°C° 0.3 mm 4 mps 737 mmHg 84%
    13:00 +6°C° 0.1 mm 4 mps 737 mmHg 83%
    14:00 +6°C° 0.1 mm 4 mps 736 mmHg 82%
    15:00 +6°C° 0.1 mm 4 mps 736 mmHg 81%
    16:00 +7°C° 0.1 mm 3 mps 736 mmHg 83%
    17:00 +7°C° 0.1 mm 3 mps 736 mmHg 85%
    18:00 +5°C° 0.1 mm 3 mps 736 mmHg 86%
    19:00 +5°C° 0.1 mm 3 mps 735 mmHg 88%
    20:00 +6°C° 0.1 mm 2 mps 735 mmHg 89%
    21:00 +6°C° 0.1 mm 2 mps 735 mmHg 91%
    22:00 +5°C° 0.1 mm 2 mps 736 mmHg 92%
    23:00 +5°C° 0.1 mm 2 mps 736 mmHg 93%
    Show more